Location: Pebble Beach Sunset Acres
(33.0837°N, 96.4508°W)
Time: 17:57:20
(UTC+00:00)

DELTA 2 R/B (1) - Pass Details

Date: 04 July 2022
Orbit: 790 x 802 km, 39.6° (Epoch: 18 August)

Event Time Altitude Azimuth Distance (km) Brightness Sun altitude
Rises 03:32:47 0° 285° (WNW) 3,294 7.7 -19.9°
Reaches altitude 10° 03:35:40 10° 272° (W) 2,364 6.6 -20.3°
Maximum altitude 03:40:08 25° 218° (SW) 1,564 5.0 -20.9°
Enters shadow 03:41:29 23° 197° (SSW) 1,653 4.9 -21.1°
